GALAXY 34 (G-34)

Last updated on Thu Apr 09 2026 00:02:53 GMT+0000 (Coordinated Universal Time)

1 54027U 22128B 26098.57165977 .00000060 00000+0 00000+0 0 9999 2 54027 0.0145 231.7216 0001415 139.5757 262.3400 1.00274652 13211
UTC large
Height (km)
Speed (km/s)
/
Latitude / Longitude
Inclination (degrees)
Orbital Period (minutes)
Azimuth
Elevation
Range (km)
Doppler Factor

Next 0 passes for location: London (51.5072 / 0.1276)

Sorry there are no passes over London.